カタログに戻る

FENGYUN 1C DEB

運用中PO
NORAD 30999·DEBRIS·🇨🇳 China

打ち上げ May 10, 1999 から Taiyuan Satellite Launch Center

Loading…

次のパス (今後24時間)

TLE

最新Source: Space-Track

元期: Sep 14, 2026, 07:37 UTC

1 30999U 99025BCR 26257.31801084  .00001613  00000-0  32167-3 0  9995
2 30999  99.0889 102.3009 0109430 220.5805 138.7198 14.59915306 28368

AllMySatでFENGYUN 1C DEBをリアルタイム追跡

Download on the App Store